608  
ASUS43 KGLD 190308  
RWRGLD  
 
GOODLAND FORECAST AREA HOURLY WEATHER ROUNDUP  
NATIONAL WEATHER SERVICE GOODLAND KS  
900 PM MDT FRI SEP 18 2020  
   
..OFFICIAL OBSERVATIONS
 
 
 
CITY SKY/WX TMP DP RH WIND PRES REMARKS
 
GOODLAND KS CLEAR 67 49 52 S16 30.16R  
HILL CITY KS CLEAR 62 52 69 SE7 30.19S  
IMPERIAL NEB CLEAR 68 53 58 S16G24 30.13R  
MCCOOK NEB CLEAR 65 54 67 SE10 30.16R  
AKRON CO CLEAR 65 35 33 S10 30.14S  
BURLINGTON CO CLEAR 67 41 38 S15 30.18R  
LIMON CO CLEAR 54 33 45 SE3 30.21R  

 
   
..UNOFFICIAL OBSERVATIONS
 
 
 
CITY SKY/WX TMP DP RH WIND PRES REMARKS
 
COLBY KS CLEAR 64 52 63 SE14 30.19R  
NORTON KS FAIR 63 50 63 SE12 30.21S  
SHARON SPRINGS N/A 65 47 52 SE12 N/A  

 
 
 
CLICK HERE TO GO TO PREVIOUS BULLETINS.

The Nexlab KS Page
The Nexlab CO Page
The Nexlab NE Page Main Text Page